Featured Flight

MET2281 - Kansas City to Oklahoma City

Bombardier Dash-8-Q200
835AG
1 hr 20 mins
272 nm
Scheduled - Daily

Bid/PiRep Status

Bid was submitted on Oct 21 2016.

PiRep # 73801: Approved by Dave Nichols on October 26th, 2016 21:43 UTC

Departure

Departing from
Kansas City (MCI)
Departure gate
Scheduled Departure
GMT 1400
Local 0900
METAR KMCI 242153Z 08007KT 10SM CLR 31/18 A2998 RMK AO2 SLP141 T03110183
TAF KMCI 241720Z 2418/2518 10005KT P6SM SCT040 FM251200 15008KT P6SM FEW200

Route Map

Planning Resources

WLDCT2 GULLI1
DOSOA J25 TUL GULLI
â– RACER3 DOSOA TUL TRUMP5
KMCI DOSOA TUL DWINE KOKC
DOSOA WP1 TUL KOKC
Route:
OFP Layout:
Units:
Detailed Navlog:
ETOPS Planning:
Plan Stepclimbs:
Runway Analysis:
Include NOTAMS:
FIR NOTAMS:
Flight Maps:

Return Flights

MET2282
Bombardier Dash-8-Q200
1550 GMT
MET2286
Bombardier Dash-8-Q200
2230 GMT
MET3421
Bombardier Dash-8-Q400
1235 GMT
MET3423
Bombardier Dash-8-Q400
1940 GMT

Popularity

Hub Current Bids PiReps this month Total PiReps
KMCI 0 0 2
KLAX 0 0 0
KBOS 0 0 0